Date,TemperatureHighF,TemperatureAvgF,TemperatureLowF,DewpointHighF,DewpointAvgF,DewpointLowF,HumidityHigh,HumidityAvg,HumidityLow,PressureMaxIn,PressureMinIn,WindSpeedMaxMPH,WindSpeedAvgMPH,GustSpeedMaxMPH,PrecipitationSumIn
2013-2-1,60.0,54.3,48.4,55.9,52.3,47.3,98,93,75,30.35,29.79,10,3,14,0.00
2013-2-2,61.1,55.3,50.0,53.1,43.3,35.5,81,64,48,29.84,29.61,23,14,31,0.05
2013-2-3,52.6,49.0,41.0,37.7,31.4,25.5,72,51,38,30.32,29.82,25,8,37,0.00
2013-2-4,56.8,48.6,37.0,47.3,39.5,31.3,87,71,55,30.37,30.28,14,5,19,0.00
2013-2-5,62.3,53.1,41.5,53.1,46.7,38.1,92,80,55,30.29,29.94,11,5,17,0.00
2013-2-6,56.2,53.4,50.1,52.5,39.9,34.6,92,61,45,29.94,29.77,22,12,30,0.00
2013-2-7,52.2,50.2,47.8,39.7,33.6,21.0,71,54,30,30.06,29.79,21,11,23,0.06
2013-2-8,53.2,48.6,43.5,40.9,38.0,31.7,81,67,51,30.06,29.86,13,4,18,0.00
2013-2-9,49.4,45.8,40.5,39.6,34.7,28.3,82,66,46,30.16,29.98,11,4,12,0.00
2013-2-10,57.1,54.4,48.9,51.0,44.5,38.7,85,69,52,30.12,29.70,20,12,23,0.00
2013-2-11,57.5,53.1,48.4,51.1,38.4,31.4,84,58,43,29.73,29.60,19,10,25,0.02
2013-2-12,53.9,51.8,47.0,41.2,37.0,30.4,76,58,42,29.96,29.65,18,8,26,0.09
2013-2-13,57.2,52.3,46.1,46.8,42.0,39.6,78,68,60,30.12,29.92,11,4,17,0.00
2013-2-14,60.4,51.0,43.1,51.2,45.0,38.4,87,80,69,30.18,30.11,6,3,8,0.00
2013-2-15,60.2,52.0,44.5,52.5,44.5,41.7,92,77,52,30.17,30.08,11,4,17,0.00
2013-2-16,57.9,51.4,44.5,48.6,45.3,40.5,89,80,67,30.18,30.09,5,2,8,0.00
2013-2-17,56.9,51.9,45.0,50.8,47.2,41.4,88,84,78,30.09,29.92,4,2,7,0.00
2013-2-18,59.3,54.2,50.6,53.6,51.0,48.7,94,89,79,29.96,29.86,8,1,12,0.04
2013-2-19,59.1,52.8,48.8,50.7,46.4,41.5,94,80,53,29.98,29.91,9,3,12,0.01
2013-2-20,60.2,52.2,45.9,49.3,41.3,34.2,82,68,40,29.94,29.86,6,2,9,0.00
2013-2-21,63.6,52.5,42.4,54.1,47.0,38.9,92,82,56,29.91,29.68,14,5,16,0.00
2013-2-22,61.9,57.6,51.8,52.5,49.7,45.0,90,75,55,29.69,29.49,19,7,25,0.04
2013-2-23,55.2,47.2,41.4,50.4,39.5,31.1,93,75,57,29.86,29.34,20,7,29,0.05
2013-2-24,49.7,45.1,39.0,36.5,32.8,29.7,86,62,51,29.95,29.87,12,7,18,0.02
2013-2-25,49.3,42.4,37.3,38.1,35.7,29.5,89,78,51,30.09,29.95,9,3,13,0.02
2013-2-26,49.2,42.2,36.8,39.1,35.6,32.1,90,78,60,30.17,30.06,8,3,12,0.05
2013-2-27,55.5,43.8,33.8,38.0,34.2,29.6,85,71,43,30.18,30.05,8,4,13,0.00
2013-2-28,55.3,50.1,42.7,50.2,45.4,37.6,92,84,72,30.04,29.78,12,6,17,0.18